Time,TemperatureF,DewpointF,PressureIn,WindDirection,WindDirectionDegrees,WindSpeedMPH,WindSpeedGustMPH,Humidity,HourlyPrecipIn,Conditions,Clouds,dailyrainin,SolarRadiationWatts/m^2,SoftwareType,DateUTC
2013-06-29 03:11:00,77.0,30.0,30.12,WNW,297,25.0,41.0,18,-99.99,,,0.00,0.000000,,2013-06-29 10:11:00,
2013-06-29 03:43:00,77.0,30.0,30.12,WNW,299,23.0,36.0,18,-99.99,,,0.00,0.000000,,2013-06-29 10:43:00,
2013-06-29 03:53:00,77.0,30.0,30.12,WNW,299,23.0,36.0,18,-99.99,,,0.00,0.000000,,2013-06-29 10:53:00,
2013-06-29 04:01:00,77.0,30.0,30.12,WNW,299,23.0,36.0,18,-99.99,,,0.00,0.000000,,2013-06-29 11:01:00,
2013-06-29 04:11:00,77.0,30.0,30.12,WNW,299,23.0,36.0,18,-99.99,,,0.00,0.000000,,2013-06-29 11:11:00,
2013-06-29 04:43:00,79.0,30.0,30.11,WNW,301,25.0,35.0,17,-99.99,,,-99.99,0.000000,,2013-06-29 11:43:00,
2013-06-29 04:53:00,79.0,30.0,30.11,WNW,301,25.0,35.0,17,-99.99,,,-99.99,0.000000,,2013-06-29 11:53:00,
2013-06-29 05:02:00,79.0,30.0,30.11,WNW,301,25.0,35.0,17,-99.99,,,-99.99,0.000000,,2013-06-29 12:02:00,
2013-06-29 05:11:00,79.0,30.0,30.11,WNW,301,25.0,35.0,17,-99.99,,,-99.99,0.000000,,2013-06-29 12:11:00,
2013-06-29 08:42:00,84.0,31.0,30.12,North,10,7.0,14.0,15,-99.99,,,0.00,86.000000,,2013-06-29 15:42:00,
2013-06-29 10:11:00,84.0,36.0,30.12,NE,51,3.0,10.0,18,-99.99,,,-99.99,150.000000,,2013-06-29 17:11:00,
2013-06-29 10:42:00,84.0,43.0,30.12,NNE,33,3.0,7.0,24,0.00,,,0.00,181.000000,,2013-06-29 17:42:00,
2013-06-29 10:53:00,84.0,43.0,30.12,NNE,33,3.0,7.0,24,0.00,,,0.00,181.000000,,2013-06-29 17:53:00,
2013-06-29 11:01:00,84.0,43.0,30.12,NNE,33,3.0,7.0,24,0.00,,,0.00,181.000000,,2013-06-29 18:01:00,
2013-06-29 11:11:00,84.0,43.0,30.12,NNE,33,3.0,7.0,24,0.00,,,0.00,181.000000,,2013-06-29 18:11:00,
2013-06-29 11:43:00,82.0,45.0,30.13,East,99,4.0,8.0,27,0.00,,,0.00,189.000000,,2013-06-29 18:43:00,
2013-06-29 11:53:00,82.0,45.0,30.13,East,99,4.0,8.0,27,0.00,,,0.00,189.000000,,2013-06-29 18:53:00,
2013-06-29 12:01:00,82.0,45.0,30.13,East,99,4.0,8.0,27,0.00,,,0.00,189.000000,,2013-06-29 19:01:00,
2013-06-29 12:12:00,82.0,45.0,30.13,East,99,4.0,8.0,27,0.00,,,0.00,189.000000,,2013-06-29 19:12:00,
2013-06-29 12:43:00,85.0,47.0,30.13,ESE,118,6.0,12.0,27,0.00,,,-99.99,170.000000,,2013-06-29 19:43:00,
2013-06-29 12:54:00,85.0,47.0,30.13,ESE,118,6.0,12.0,27,0.00,,,-99.99,170.000000,,2013-06-29 19:54:00,
2013-06-29 13:01:00,85.0,47.0,30.13,ESE,118,6.0,12.0,27,0.00,,,-99.99,170.000000,,2013-06-29 20:01:00,
2013-06-29 13:11:00,85.0,47.0,30.13,ESE,118,6.0,12.0,27,0.00,,,-99.99,170.000000,,2013-06-29 20:11:00,
2013-06-29 13:43:00,87.0,48.0,30.13,NNW,345,6.0,14.0,26,0.00,,,0.00,111.000000,,2013-06-29 20:43:00,
2013-06-29 13:52:00,87.0,48.0,30.13,NNW,345,6.0,14.0,26,0.00,,,0.00,111.000000,,2013-06-29 20:52:00,
2013-06-29 14:01:00,87.0,48.0,30.13,NNW,345,6.0,14.0,26,0.00,,,0.00,111.000000,,2013-06-29 21:01:00,
2013-06-29 14:11:00,87.0,48.0,30.13,NNW,345,6.0,14.0,26,0.00,,,0.00,111.000000,,2013-06-29 21:11:00,
2013-06-29 14:42:00,83.0,47.0,30.12,WNW,293,3.0,16.0,28,0.00,,,0.00,58.000000,,2013-06-29 21:42:00,
2013-06-29 14:52:00,83.0,47.0,30.12,WNW,293,3.0,16.0,28,0.00,,,0.00,58.000000,,2013-06-29 21:52:00,
2013-06-29 15:01:00,83.0,47.0,30.12,WNW,293,3.0,16.0,28,0.00,,,0.00,58.000000,,2013-06-29 22:01:00,
2013-06-29 15:11:00,83.0,47.0,30.12,WNW,293,3.0,16.0,28,0.00,,,0.00,58.000000,,2013-06-29 22:11:00,
2013-06-29 15:43:00,87.0,46.0,30.11,NNW,341,9.0,16.0,24,0.00,,,0.00,40.000000,,2013-06-29 22:43:00,
2013-06-29 15:53:00,87.0,46.0,30.11,NNW,341,9.0,16.0,24,0.00,,,0.00,40.000000,,2013-06-29 22:53:00,
2013-06-29 16:02:00,87.0,46.0,30.11,NNW,341,9.0,16.0,24,0.00,,,0.00,40.000000,,2013-06-29 23:02:00,
2013-06-29 16:12:00,87.0,46.0,30.11,NNW,341,9.0,16.0,24,0.00,,,0.00,40.000000,,2013-06-29 23:12:00,
2013-06-29 16:43:00,87.0,42.0,30.10,WSW,250,6.0,19.0,21,0.00,,,0.00,30.000000,,2013-06-29 23:43:00,
2013-06-29 16:52:00,87.0,42.0,30.10,WSW,250,6.0,19.0,21,0.00,,,0.00,30.000000,,2013-06-29 23:52:00,
2013-06-29 17:01:00,87.0,42.0,30.10,WSW,250,6.0,19.0,21,0.00,,,0.00,30.000000,,2013-06-30 00:01:00,
2013-06-29 17:11:00,87.0,42.0,30.10,WSW,250,6.0,19.0,21,0.00,,,0.00,30.000000,,2013-06-30 00:11:00,
2013-06-29 18:44:00,84.0,47.0,30.06,SE,132,10.0,20.0,28,-99.99,,,0.00,25.000000,,2013-06-30 01:44:00,
2013-06-29 18:53:00,84.0,47.0,30.06,SE,132,10.0,20.0,28,-99.99,,,0.00,25.000000,,2013-06-30 01:53:00,
2013-06-29 19:02:00,84.0,47.0,30.06,SE,132,10.0,20.0,28,-99.99,,,0.00,25.000000,,2013-06-30 02:02:00,
2013-06-29 19:11:00,84.0,47.0,30.06,SE,132,10.0,20.0,28,-99.99,,,0.00,25.000000,,2013-06-30 02:11:00,
2013-06-29 19:43:00,81.0,45.0,30.05,North,355,11.0,27.0,28,0.00,,,0.00,22.000000,,2013-06-30 02:43:00,
2013-06-29 19:53:00,81.0,45.0,30.05,North,355,11.0,27.0,28,0.00,,,0.00,22.000000,,2013-06-30 02:53:00,
2013-06-29 20:01:00,81.0,45.0,30.05,North,355,11.0,27.0,28,0.00,,,0.00,22.000000,,2013-06-30 03:01:00,
2013-06-29 20:11:00,81.0,45.0,30.05,North,355,11.0,27.0,28,0.00,,,0.00,22.000000,,2013-06-30 03:11:00,
2013-06-29 20:43:00,81.0,42.0,30.05,WNW,292,17.0,30.0,25,0.00,,,0.00,18.000000,,2013-06-30 03:43:00,
2013-06-29 20:53:00,81.0,42.0,30.05,WNW,292,17.0,30.0,25,0.00,,,0.00,18.000000,,2013-06-30 03:53:00,
2013-06-29 21:01:00,81.0,42.0,30.05,WNW,292,17.0,30.0,25,0.00,,,0.00,18.000000,,2013-06-30 04:01:00,
2013-06-29 21:12:00,81.0,42.0,30.05,WNW,292,17.0,30.0,25,0.00,,,0.00,18.000000,,2013-06-30 04:12:00,
2013-06-29 21:43:00,80.0,38.0,30.06,WNW,296,17.0,25.0,22,0.00,,,0.00,12.000000,,2013-06-30 04:43:00,
2013-06-29 21:53:00,80.0,38.0,30.06,WNW,296,17.0,25.0,22,0.00,,,0.00,12.000000,,2013-06-30 04:53:00,
2013-06-29 22:02:00,80.0,38.0,30.06,WNW,296,17.0,25.0,22,0.00,,,0.00,12.000000,,2013-06-30 05:02:00,
2013-06-29 22:12:00,80.0,38.0,30.06,WNW,296,17.0,25.0,22,0.00,,,0.00,12.000000,,2013-06-30 05:12:00,
2013-06-29 22:43:00,80.0,45.0,30.06,WNW,297,21.0,27.0,29,0.00,,,0.00,3.000000,,2013-06-30 05:43:00,
2013-06-29 22:53:00,80.0,45.0,30.06,WNW,297,21.0,27.0,29,0.00,,,0.00,3.000000,,2013-06-30 05:53:00,
2013-06-29 23:02:00,80.0,45.0,30.06,WNW,297,21.0,27.0,29,0.00,,,0.00,3.000000,,2013-06-30 06:02:00,